EW6230 Weather Reports


time (UTC)temp
C
wind
direction
speed
KPH
gust
KPH
rain 1hr
cm
rain 24hr
cm
rain mn
cm
humidity
%
barometer
mb
20260504173024 24 51 0.0 0.0 0.00 0.00 0.00 42 1007.2
20260504171520 24 50 0.0 1.6 0.00 0.00 0.00 41 1007.2
20260504160106 25 37 0.0 0.0 0.00 0.00 0.00 44 1007.1
20260504081531 14 58 0.0 0.0 0.00 0.00 0.00 52 1005.6
20260504050010 15 58 0.0 0.0 0.00 0.00 0.00 57 1006.2
20260504044514 16 58 0.0 0.0 0.00 0.00 0.00 49 1006.0
20260504043014 17 58 0.0 0.0 0.00 0.00 0.00 47 1006.0
20260504041532 17 58 0.0 0.0 0.00 0.00 0.00 44 1006.0
20260504040015 18 58 0.0 0.0 0.00 0.00 0.00 48 1006.0
20260504034510 18 58 0.0 0.0 0.00 0.00 0.00 46 1005.9
20260504033008 19 58 0.0 0.0 0.00 0.00 0.00 44 1005.9
20260504031508 20 58 0.0 0.0 0.00 0.00 0.00 42 1005.8
20260504030007 21 58 0.0 0.0 0.00 0.00 0.00 39 1005.9
20260504024506 21 58 0.0 0.0 0.00 0.00 0.00 38 1006.0
20260504023005 22 58 0.0 0.0 0.00 0.00 0.00 34 1006.0
20260504021503 22 58 0.0 0.0 0.00 0.00 0.00 37 1006.2
20260504020005 22 58 0.0 0.0 0.00 0.00 0.00 36 1006.2
20260504014602 23 58 0.0 0.0 0.00 0.00 0.00 33 1006.4
20260504013126 23 58 0.0 0.0 0.00 0.00 0.00 33 1006.6
20260504011556 23 61 0.0 0.0 0.00 0.00 0.00 33 1006.8
20260504010057 23 61 0.0 0.0 0.00 0.00 0.00 33 1007.1
20260504004553 23 61 0.0 0.0 0.00 0.00 0.00 33 1007.2
20260504003052 25 61 0.0 0.0 0.00 0.00 0.00 31 1007.3
20260504001551 26 25 0.0 0.0 0.00 0.00 0.00 31 1007.4
20260504000049 26 25 0.0 0.0 0.00 0.00 0.00 29 1007.5
20260503234547 27 25 0.0 0.0 0.00 0.00 0.00 30 1007.6
20260503233046 27 80 0.0 0.0 0.00 0.00 0.00 32 1007.8
20260503231542 26 82 0.0 0.0 0.00 0.00 0.00 33 1007.8
20260503230042 26 79 0.0 0.0 0.00 0.00 0.00 33 1008.0
20260503224537 26 89 0.0 0.0 0.00 0.00 0.00 33 1008.3
20260503223035 25 151 0.0 0.0 0.00 0.00 0.00 35 1008.5
20260503221533 25 92 0.0 0.0 0.00 0.00 0.00 35 1008.8
20260503220030 24 126 0.0 0.0 0.00 0.00 0.00 36 1009.1
20260503214537 24 70 0.0 0.0 0.00 0.00 0.00 37 1009.3
20260503213027 24 92 0.0 0.0 0.00 0.00 0.00 36 1009.3
20260503211525 25 84 0.0 0.0 0.00 0.00 0.00 36 1009.4
20260503210024 26 355 0.0 0.0 0.00 0.00 0.00 35 1009.4
20260503204522 26 324 0.0 0.0 0.00 0.00 0.00 32 1009.5
20260503203032 26 323 0.0 0.0 0.00 0.00 0.00 32 1009.4
20260503201519 26 71 0.0 0.0 0.00 0.00 0.00 35 1009.6
20260503200016 26 91 0.0 0.0 0.00 0.00 0.00 35 1009.8
20260503194513 25 305 0.0 0.0 0.00 0.00 0.00 36 1010.0
20260503193021 24 305 0.0 0.0 0.00 0.00 0.00 36 1010.2
20260503191520 25 305 0.0 0.0 0.00 0.00 0.00 34 1010.4
20260503190018 25 49 0.0 0.0 0.00 0.00 0.00 36 1010.5
20260503184506 25 75 0.0 0.0 0.00 0.00 0.00 36 1010.5
20260503183003 25 76 0.0 0.0 0.00 0.00 0.00 37 1010.7
20260503181559 24 76 0.0 0.0 0.00 0.00 0.00 40 1010.9
20260503174555 23 75 0.0 0.0 0.00 0.00 0.00 41 1011.2